Flag for U.S.A. Weather past 2 weeks in Amarillo, Texas, U.S.A.

53 °F

Rain. Fog.

Feels Like: 51 °F
Forecast: 50 / 60 °F
Wind: 7 mph from Southeast

Location: Amarillo International Airport

Current Time: Oct 4, 2015 at 3:51:23 PM

Latest Report: Oct 4, 2015 at 2:53 PM

Visibility: 2 mi

Pressure: 30.07 "Hg (26.30 "Hg at 1117m altitude)

Humidity: 93%

Dew point: 51 °F

Location of AmarilloLocation

Historic Weather in Amarillo — Graph


Amarillo temperature yesterday

Maximum temperature yesterday: 53 °F (at 4:53 AM)
Minimum temperature yesterday: 50 °F (at 1:53 PM)
Average temperature yesterday: 51 °F

Past Weeks' High & Low Weather Summary

High91 °F (Sep 21, 3:53 PM)97% (Oct 4, 7:01 AM)30.18 "Hg (Oct 4, 7:01 AM)
Low50 °F (Oct 3, 1:53 PM)26% (Sep 21, 3:53 PM)29.77 "Hg (Sep 28, 4:53 PM)
Average68 °F62%29.97 "Hg
* Reported Sep 19 2:53 PM — Oct 4 2:03 PM, Amarillo, Weather by CustomWeather, © 2015

Note: Actual official high and low records may vary slightly from our data, if they occured in-between our weather recording intervals... More about our weather records


Amarillo weather history for previous 24 hours

Time TempWeatherWind HumidityBarometerVisibility
2:03 PM
Sun, Oct 4
53 °FLight rain. Fog.8 mph93%30.16 "Hg4 mi
1:53 PM52 °FLight rain. Fog.10 mph97%30.10 "Hg5 mi
12:53 PM52 °FFog.9 mph97%30.12 "Hg5 mi
12:00 PM52 °FRain. Fog.9 mph97%30.17 "Hg2 mi
10:53 AM52 °FHeavy rain. Fog.7 mph93%30.13 "Hg2 mi
9:53 AM51 °FLight rain. Fog.8 mph92%30.10 "Hg5 mi
8:53 AM50 °FOvercast.9 mph93%30.08 "Hg10 mi
7:53 AM51 °FPartly cloudy.8 mph92%30.06 "Hg10 mi
7:01 AM52 °FPassing clouds.9 mph97%30.09 "Hg10 mi
5:53 AM53 °FPartly cloudy.5 mph93%30.01 "Hg10 mi
4:53 AM53 °FLight rain. Overcast.7 mph93%29.98 "Hg10 mi
3:53 AM51 °FRain. Overcast.21 mph92%29.99 "Hg8 mi
2:53 AM51 °FLight rain. Overcast.13 mph89%30.00 "Hg10 mi
1:53 AM51 °FPartly cloudy.17 mph86%29.98 "Hg10 mi
12:53 AM51 °FLight rain. Overcast.17 mph86%29.98 "Hg10 mi
11:53 PM
Sat, Oct 3
51 °FRain. Mostly cloudy.22 mph86%29.95 "Hg8 mi
10:53 PM50 °FLight rain. Mostly cloudy.14 mph89%29.98 "Hg7 mi
9:53 PM51 °FPassing clouds.8 mph80%29.99 "Hg10 mi
8:53 PM52 °FMostly cloudy.6 mph83%29.97 "Hg10 mi
7:53 PM51 °FOvercast.16 mph86%29.92 "Hg10 mi
6:53 PM50 °FLight rain. Mostly cloudy.16 mph93%29.90 "Hg10 mi
5:53 PM50 °FLight rain. Fog.12 mph93%29.97 "Hg2 mi
3:53 PM51 °FLight rain. More clouds than sun.22 mph86%29.90 "Hg8 mi
Weather by CustomWeather, © 2015

See weather overviewHow to use our weather pages